Location: Andrest
(43.3200°N, 0.0641°E)
Time: 09:57:00
(UTC+00:00)

BREEZE-M DEB (TANK) - Pass Details

Date: 01 December 2020
Orbit: 297 x 20369 km, 49.3° (Epoch: 23 January)

Event Time Altitude Azimuth Distance (km) Brightness Sun altitude
Rises 16:44:55 0° 239° (WSW) 3,988 10.1 -4.0°
Reaches altitude 10° 16:48:42 10° 238° (WSW) 2,015 7.6 -4.6°
Maximum altitude 16:52:16 78° 152° (SSE) 367 2.0 -5.2°
Drops below altitude 10° 16:54:19 10° 65° (ENE) 1,170 3.8 -5.6°
Enters shadow 16:54:37 - 65° (ENE) 1,337 4.1 -5.6°
